This is the latest recevied weather packets stored in our database for station/object VE3TEJ. If no packets are shown the sender has not sent any weather packets the latest 10 day(s).
| Time | Temp. | Humidity | Pressure | Rain* | Wind** | Luminosity | Snow |
|---|---|---|---|---|---|---|---|
| 1787934756 | 21.67° C | 61% | 1026.7 hPa | 0 mm | - | - | - |
| 1787934707 | 22.22° C | 62% | 1026.8 hPa | 0 mm | - | - | - |
| 1787934456 | 21.67° C | 61% | 1026.7 hPa | 0 mm | - | - | - |
| 1787934156 | 21.67° C | 62% | 1026.7 hPa | 0 mm | - | - | - |
| 1787933855 | 21.11° C | 63% | 1026.4 hPa | 0 mm | - | - | - |
| 1787933807 | 21.11° C | 63% | 1026.6 hPa | 0 mm | - | - | - |
| 1787933555 | 21.11° C | 63% | 1026.6 hPa | 0 mm | - | - | - |
| 1787933257 | 21.11° C | 62% | 1026.7 hPa | 0 mm | - | - | - |
| 1787932957 | 21.11° C | 63% | 1027 hPa | 0 mm | - | - | - |
| 1787932908 | 21.11° C | 64% | 1026.8 hPa | 0 mm | - | - | - |
| 1787932656 | 21.11° C | 64% | 1027.1 hPa | 0 mm | - | - | - |
| 1787932356 | 21.11° C | 63% | 1026.9 hPa | 0 mm | - | - | - |
| 1787932056 | 21.67° C | 63% | 1026.8 hPa | 0 mm | - | - | - |
| 1787931756 | 21.11° C | 64% | 1026.6 hPa | 0 mm | - | - | - |
| 1787931455 | 21.11° C | 64% | 1026.7 hPa | 0 mm | - | - | - |
| 1787931155 | 20.56° C | 64% | 1026.7 hPa | 0 mm | - | - | - |
| 1787930856 | 20.56° C | 64% | 1026.8 hPa | 0 mm | - | - | - |
| 1787930556 | 20.56° C | 65% | 1026.7 hPa | 0 mm | - | - | - |
| 1787930255 | 20° C | 65% | 1026.7 hPa | 0 mm | - | - | - |
| 1787929955 | 20.56° C | 65% | 1026.6 hPa | 0 mm | - | - | - |
| 1787929657 | 20° C | 65% | 1026.7 hPa | 0 mm | - | - | - |
| 1787929356 | 20° C | 65% | 1026.5 hPa | 0 mm | - | - | - |
| 1787929056 | 20° C | 65% | 1026.7 hPa | 0 mm | - | - | - |
| 1787928756 | 20.56° C | 64% | 1026.5 hPa | 0 mm | - | - | - |
| 1787928456 | 20° C | 65% | 1026.5 hPa | 0 mm | - | - | - |
* Rain latest hour (hover to see other rain measurements)
** Current wind speed in m/s (hover to see current wind gust speed)